Погода в Крайстчерче

Великобритания     50°44′03″N   1°45′26″W
В апреле 2022 года жителям России запретили посещать сайт meteo.paraplan.net по решению Генеральной прокуратуры. Аудитория сайта уменьшилась в 10 раз. Владельцы сайта не видят смысла в поддержке погодного сервера в таких условиях. Сайт будет закрыт в октябре.
темп.,
°C
ветер,
м/с
пор.,
м/с
влажн.,
%
обл.,
%
осадки,
мм/ч
давл.,
гПа
погр.,
м
4 октября, вт
вт401:00+15юз578786 0.4 1019355
04:00+14зюз478920 0.0 1018330
07:00+15зюз6108946 0.0 1018498
10:00+17юз7981100 0.1 1018742
13:00+18юз91073100 0.1 10171174
16:00+17юз91282100 0.1 1016937
19:00+16юз91388100 0.1 1015724
22:00+17юз91485100 0.0 1014726
5 октября, ср
ср501:00+17юз101588100 0.0 1013730
04:00+16юз111788100 0.0 1010788
07:00+17юз12188769 0.0 1009857
10:00+17юз131884100 0.0 1008918
13:00+13зсз71289100 4.4 1011645
16:00+16з8127227 0.3 10131343
19:00+13з913730 0.6 1018976
22:00+12з914730 0.0 1021949
6 октября, чт
чт601:00+12з813730 0.0 1024697
04:00+10з59800 0.0 1027365
07:00+10з59780 0.0 1029318
10:00+14зюз57635 0.0 10311001
13:00+16зюз785660 0.0 10311428
16:00+16зюз785991 0.0 10291299
19:00+14юз6871100 0.0 1029549
22:00+14зюз6976100 0.0 1029587
7 октября, пт
пт701:00+13юз6979100 0.0 1027608
04:00+13юз7107937 0.0 1025635
07:00+15зюз81072100 0.0 1023999
10:00+15юз8118070 0.2 1023926
13:00+17зюз10126940 0.3 10221312
16:00+17зюз911715 0.1 10201192
19:00+16зюз812765 0.2 1020674
22:00+14з611880 0.0 1021499
8 октября, сб
сб801:00+12з5989100 0.0 1022348
04:00+12з4684100 0.0 1022222
07:00+12з3584100 0.0 1022183
10:00+14з347366 0.0 1022342
13:00+16зюз345714 0.0 10221162
16:00+17юз44575 0.0 1020969
19:00+14юз45765 0.0 1020260
22:00+13ююз238169 0.0 1019280